This is the latest recevied weather packets stored in our database for station/object SA7AHC. If no packets are shown the sender has not sent any weather packets the latest 10 day(s).
| Time | Temp. | Humidity | Pressure | Rain* | Wind** | Luminosity | Snow |
|---|---|---|---|---|---|---|---|
| 1788462929 | 14.44° C | 99% | 1005.5 hPa | 4.06 mm | - | 0 W/m² | - |
| 1788462329 | 14.44° C | 98% | 1005.6 hPa | 2.29 mm | - | 0 W/m² | - |
| 1788461729 | 14.44° C | 99% | 1005.6 hPa | 0.51 mm | - | 0 W/m² | - |
| 1788461130 | 14.44° C | 98% | 1005.8 hPa | 0.51 mm | - | 0 W/m² | - |
| 1788460533 | 14.44° C | 98% | 1005.8 hPa | 0.51 mm | - | 0 W/m² | - |
| 1788459933 | 14.44° C | 98% | 1005.8 hPa | 0.51 mm | - | 0 W/m² | - |
| 1788459326 | 14.44° C | 98% | 1006.2 hPa | 0.76 mm | - | 0 W/m² | - |
| 1788458722 | 14.44° C | 98% | 1006.4 hPa | 0.76 mm | - | 0 W/m² | - |
| 1788458115 | 14.44° C | 98% | 1006.4 hPa | 0.76 mm | - | 0 W/m² | - |
| 1788457514 | 14.44° C | 98% | 1006.4 hPa | 0.76 mm | - | 0 W/m² | - |
| 1788456914 | 14.44° C | 98% | 1006.6 hPa | 1.02 mm | - | 0 W/m² | - |
| 1788456312 | 13.89° C | 98% | 1006.6 hPa | 1.02 mm | - | 0 W/m² | - |
| 1788455709 | 13.89° C | 98% | 1007 hPa | 0.76 mm | - | 5 W/m² | - |
| 1788455108 | 13.89° C | 98% | 1007 hPa | 0.51 mm | - | 0 W/m² | - |
| 1788454508 | 13.89° C | 98% | 1007 hPa | 0.51 mm | - | 9 W/m² | - |
| 1788453907 | 13.89° C | 98% | 1007.1 hPa | 0.51 mm | - | 5 W/m² | - |
| 1788453304 | 13.89° C | 98% | 1007.3 hPa | 0.51 mm | - | 7 W/m² | - |
| 1788452702 | 13.89° C | 98% | 1007.3 hPa | 0.51 mm | - | 7 W/m² | - |
| 1788452101 | 13.89° C | 98% | 1007.5 hPa | 0.76 mm | - | 14 W/m² | - |
| 1788451502 | 13.89° C | 98% | 1007.6 hPa | 0.76 mm | - | 14 W/m² | - |
| 1788450902 | 13.89° C | 98% | 1007.6 hPa | 0.51 mm | - | 19 W/m² | - |
| 1788450302 | 13.89° C | 98% | 1008.1 hPa | 0.51 mm | - | 40 W/m² | - |
| 1788449701 | 13.89° C | 98% | 1008.2 hPa | 0.51 mm | - | 44 W/m² | - |
| 1788449101 | 13.89° C | 97% | 1008.2 hPa | 0.25 mm | - | 25 W/m² | - |
| 1788448501 | 13.89° C | 98% | 1008.5 hPa | 0 mm | - | 26 W/m² | - |
* Rain latest hour (hover to see other rain measurements)
** Current wind speed in m/s (hover to see current wind gust speed)